Find Starlink 2355

NORAD ID: 47895 Int'l Des: 2021-021 Owner: SPXS Country: US Constellation: starlink operational
LEOCIRCULAR

現在のビュー

3D地球を読み込み中...

About Starlink 2355

Starlink 2355 (NORAD 47895) is a starlink constellation satellite (v1.0) launched Mar 14, 2021 by SPXS of US. It operates in LEO, CIRCULAR orbit with a mass of 260.00 kg.

Starlink 2355について

説明を読み込み中...

次回通過

Passes for default location (London). Set your location on the main map for personalized predictions.

高度履歴

Loading altitude history...

軌道要素

1 47895U 21021AM 26165.74957213 -.00010997 00000-0 -34348-3 0 9990
2 47895 53.1582 176.6318 0000922 105.7266 254.3837 15.31666734291096
Epoch: Jun 14, 2026 • Age: 8 hours

現在のステータス

高度 476.8 km
速度 7.63 km/s
衛星直下点 53.29°N, 29.44°W
打ち上げ日 Mar 14, 2021
運用期間 5.2 years
タイプ internet

技術仕様

分類 Payload
質量 260.00 kg
乾燥質量 248.00 kg
総質量 260.00 kg
長さ 0.20 m
直径 2.80 m
スパン 9.00 m
形状 Box + pan
製造者 SPXS
バスタイプ Starlink
フェーズステータス In Orbit
所有者/国 SPXS/US

Most Searched